SCP
0 0 0 0 0 0 0 0 0 0 0 0 0 0 0 0 0 0 0 0 0 0 0 0 0 0 0 0 0 0 -0 -0 0 0 0 0 -0 0 0 -0 -0 0 0 0
0 0 0 0 0 0 0 0 0 0 0 0 0 0 0 0 0 0 0 0 0 0 0 0 0 0 0 0 0 0 0 0 0 -0 0 0 0 -0 0 0 0 -0 0 0
0 0 0 0 0 0 0 0 0 0 0 0 0 0 0 0 0 0 0 0 0 0 0 0 0 0 0 0 0 0 0 0 0 0 0 0 0 0 -0 0 0 0 -0 0
0 0 0 0 0 0 0 0 0 0 0 0 0 0 0 0 0 0 0 0 0 0 0 0 0 0 0 0 0 0 0 0 0 0 0 0 0 0 0 -0 0 -0 0 0
0 0 0 0 0 0 0 0 0 0 0 0 0 0 0 0 0 0 0 0 0 0 0 0 0 0 0 0 0 0 0 0 0 0 0 0 0 0 0 0 0 0 0 0
0 0 0 0 0 0 0 0 0 0 0 0 0 0 0 0 0 0 0 0 0 0 0 0 0 0 0 0 0 0 0 0 0 0 0 0 0 0 0 0 -0 0 0 0
0 0 0 0 0 0 0 0 0 0 0 0 0 0 0 0 0 0 0 0 0 0 0 0 0 0 0 0 0 0 0 0 0 0 0 0 0 0 0 0 0 0 0 0
0 0 0 0 0 0 0 0 0 0 0 0 0 0 0 0 0 0 0 0 0 0 0 0 0 0 0 0 0 0 0 0 0 0 0 0 0 0 0 0 0 0 0 0
0 0 0 0 0 0 0 0 0 0 0 0 0 0 0 0 0 0 0 0 0 0 0 0 0 0 0 0 0 0 0 0 0 0 0 0 0 0 0 0 0 0 0 0
0 0 0 0 0 0 0 0 0 0 0 0 0 0 0 0 0 0 0 0 0 0 0 0 0 0 0 0 0 0 0 0 0 0 0 0 0 0 0 0 0 0 0 0
0 0 0 0 0 0 0 0 0 0 0 0 0 0 0 0 0 0 0 0 0 0 0 0 0 0 0 0 0 1 0 0 0 0 0 0 0 0 0 2 2 1 1 1
0 0 0 0 0 0 0 0 0 0 0 0 0 0 0 0 0 0 0 0 0 0 0 0 0 0 0 0 0 0 0 0 0 1 1 3 2 2 2 2 2 1 1 0
0 0 0 0 0 0 0 0 0 0 0 0 0 0 0 0 0 0 0 0 0 0 0 0 0 1 0 0 0 1 2 1 2 1 1 1 1 1 1 1 0 0 0 0
0 0 0 0 0 0 0 0 0 0 0 0 0 0 0 0 0 0 0 0 0 0 0 0 0 0 1 0 0 0 1 0 1 2 1 0 0 0 0 0 0 0 0 0
0 0 0 0 0 0 0 0 0 0 0 0 0 0 0 0 0 0 0 0 0 0 0 0 1 0 0 0 0 0 0 0 0 0 1 1 0 0 0 0 0 0 0 0
0 0 0 0 0 0 0 0 0 0 0 0 0 0 0 0 0 0 0 0 0 0 0 0 0 0 0 0 0 0 0 0 0 0 0 0 0 0 0 0 0 0 0 0
0 0 0 0 0 0 0 0 0 0 0 0 0 0 -0 0 0 0 0 0 0 0 0 0 0 0 0 0 0 0 0 0 0 0 0 0 0 0 0 0 0 0 0 0
0 0 0 0 0 0 0 0 0 0 0 0 0 0 -0 -0 0 0 0 0 0 0 0 0 0 0 0 0 0 0 0 0 0 0 0 0 0 0 0 0 0 0 0 0
0 0 0 0 0 0 0 0 0 0 0 0 0 0 0 0 0 0 0 0 0 0 0 0 0 0 0 0 0 0 0 0 0 0 0 0 0 0 0 0 0 0 0 0
0 0 0 0 0 0 0 0 0 0 0 0 0 0 0 0 0 0 0 0 0 0 0 0 0 0 0 0 0 0 0 0 0 0 0 0 0 0 0 0 0 0 0 0
0 0 0 0 0 0 0 0 0 0 0 0 0 0 0 0 0 0 0 0 0 0 0 0 0 0 0 0 0 0 0 0 0 0 0 0 0 0 0 0 0 0 0 0
0 0 0 0 0 0 0 0 0 0 0 0 0 0 0 0 0 0 0 0 0 0 0 0 0 0 0 0 0 0 0 0 0 0 0 0 0 0 0 0 0 0 0 0
0 0 0 0 0 0 0 0 0 0 0 0 0 0 0 0 0 0 0 0 0 0 0 0 0 0 0 0 0 0 0 0 0 0 0 0 0 0 0 0 0 0 0 0
0 0 0 0 0 0 0 0 0 0 0 0 0 0 0 0 0 0 0 0 0 0 0 0 0 0 0 0 0 0 0 0 0 0 0 0 0 0 0 0 0 0 0 0
0 0 0 0 0 0 -0 0 0 0 0 0 0 0 0 0 0 0 0 0 0 0 0 0 0 0 0 0 0 0 0 0 0 0 0 0 0 0 0 0 0 0 0 0
0 0 0 0 0 0 0 0 0 0 0 0 0 0 0 0 0 0 0 0 0 0 0 0 0 0 0 0 0 0 0 0 0 0 0 0 0 0 0 0 0 0 0 0
0 0 0 0 0 0 0 0 0 0 0 0 0 0 0 0 0 0 0 0 0 0 0 0 0 0 0 0 0 0 0 0 0 0 0 0 0 0 0 0 0 0 0 0
Wind_Speed_500mb
52 49 48 45 49 50 35 16 13 26 34 32 37 35 54 61 54 73 57 47 42 42 38 45 57 60 54 61 58 58 52 34 29 45 35 36 41 37 30 20 22 21 20 18
45 44 45 41 40 42 43 21 41 37 37 26 30 39 52 55 55 56 55 46 39 42 45 40 46 59 56 57 49 49 42 37 26 36 41 37 33 34 38 31 27 28 19 9
44 44 42 38 33 31 30 17 11 37 54 51 42 42 48 52 72 58 62 52 44 43 46 43 40 46 45 53 53 52 45 38 34 29 32 38 45 44 42 37 24 29 29 25
41 42 43 39 31 22 24 15 17 37 17 35 40 47 47 49 54 65 68 50 41 42 43 44 39 38 36 49 35 33 38 34 41 49 41 35 35 40 41 42 27 30 25 20
39 39 38 40 34 22 20 17 27 45 50 50 36 34 52 54 48 51 56 45 41 48 46 42 34 40 41 40 29 29 34 25 34 44 44 48 41 47 44 44 39 35 30 27
37 36 39 36 28 18 14 25 34 33 32 33 31 30 35 50 49 44 62 46 47 49 43 46 56 33 45 40 34 29 31 27 26 36 46 43 42 39 36 36 42 37 28 21
38 35 34 30 20 22 22 27 32 33 26 29 32 44 36 41 40 41 40 52 41 39 22 24 46 31 42 37 39 38 32 25 25 27 31 46 29 34 25 29 30 27 19 28
37 33 33 26 22 22 26 23 24 34 24 38 44 43 41 38 40 47 38 27 13 14 11 18 28 28 32 38 6 35 40 29 27 24 30 32 45 22 14 13 17 12 5 21
35 33 31 27 25 21 26 25 26 36 30 30 51 42 41 23 24 27 27 16 14 8 10 20 27 29 28 34 24 3 26 37 25 21 37 38 24 1 27 13 22 18 13 4
33 30 29 28 25 24 24 26 25 25 36 56 40 36 27 37 34 19 19 39 4 8 17 22 26 31 42 35 34 26 21 9 19 26 28 29 11 23 15 14 3 20 13 13
28 27 26 29 26 25 24 26 23 23 35 62 47 41 38 35 33 16 34 21 33 16 23 25 24 24 33 38 35 32 26 20 23 19 24 34 36 30 19 19 29 31 36 27
30 24 29 26 26 24 25 27 22 23 32 51 49 51 51 41 28 25 29 26 24 16 13 23 19 27 23 29 30 29 29 17 25 10 3 32 42 45 43 37 38 35 34 27
28 25 23 22 23 23 23 25 27 20 31 54 49 42 37 43 35 28 19 16 20 18 19 12 11 15 10 5 24 24 9 15 15 14 18 28 31 28 32 35 34 31 27 22
28 26 24 23 20 18 20 18 23 17 17 13 17 12 22 15 23 27 23 26 25 25 22 19 12 13 17 12 17 17 11 6 15 32 29 34 24 24 27 31 25 22 19 15
24 23 21 21 18 15 17 18 27 23 22 11 31 30 14 14 19 18 17 16 18 21 10 8 9 10 16 10 4 23 7 16 4 7 22 14 40 31 24 19 16 12 8 5
18 20 20 20 16 13 11 9 19 26 20 13 7 11 6 10 12 17 18 16 7 9 14 10 8 13 13 8 6 21 22 41 55 35 39 42 33 24 17 13 7 3 5 7
16 16 16 16 12 15 17 10 1 14 10 11 9 8 10 11 14 16 19 16 12 8 4 7 12 13 19 9 5 35 32 34 30 20 17 22 15 9 4 8 10 9 13 20
9 15 13 10 14 15 19 20 14 17 15 16 8 5 15 20 18 14 20 17 14 12 10 9 8 4 5 5 15 28 22 23 14 11 6 5 4 3 7 12 18 27 28 28
6 6 9 8 8 9 11 10 11 19 13 15 12 6 11 17 20 19 14 17 9 13 10 6 9 10 10 5 15 8 12 7 6 4 3 7 13 13 15 22 27 30 30 27
11 10 7 7 7 5 11 8 13 17 15 15 9 18 12 22 16 11 10 8 7 8 14 18 12 10 19 21 4 6 9 6 2 5 11 14 17 15 16 19 20 21 23 24
8 4 5 4 14 10 11 11 14 20 8 14 22 18 13 6 9 12 4 7 1 4 8 8 9 18 27 22 20 13 6 6 11 12 12 16 19 23 27 29 30 29 26 26
10 3 8 9 9 11 8 8 9 6 7 12 2 6 3 9 9 7 3 1 3 5 5 3 7 15 26 20 12 5 10 11 12 14 15 19 21 22 26 24 20 17 14 16
5 7 7 8 9 2 8 15 7 13 4 11 4 6 6 4 8 9 3 6 5 7 5 7 4 27 20 17 11 4 7 12 15 16 15 11 9 11 13 16 14 15 14 19
6 5 6 5 4 4 7 6 8 8 23 12 5 13 5 12 5 2 7 7 6 6 7 11 16 31 23 14 8 11 16 17 22 3 6 3 7 9 10 11 13 16 15 15
8 9 6 5 2 2 33 22 23 15 15 6 2 2 9 7 1 4 2 7 7 10 7 16 25 21 17 13 5 14 14 14 8 6 3 3 6 7 9 12 15 16 13 12
7 8 9 29 15 17 21 17 30 26 8 4 15 6 4 7 7 6 10 6 4 10 11 16 15 13 7 3 10 18 13 3 8 9 4 3 2 1 3 9 9 8 6 7
11 10 4 6 22 16 2 13 26 25 20 7 10 1 5 6 7 2 12 11 11 26 24 21 19 23 21 16 14 14 3 11 14 13 7 5 5 9 7 12 17 12 5 2
Wind_Direction_500mb
324 327 325 324 333 330 331 303 260 198 179 196 224 229 231 248 246 246 258 262 257 258 263 232 224 224 211 207 213 208 226 245 248 197 196 214 231 216 222 243 250 280 305 181
321 326 329 326 338 345 341 296 274 250 214 227 231 239 236 243 246 250 243 248 250 264 272 274 240 226 218 213 206 223 203 233 241 244 195 193 233 232 220 233 260 270 274 132
320 321 324 325 333 336 338 289 271 222 227 238 254 246 238 232 240 246 249 242 232 237 260 268 272 239 213 213 214 207 224 216 233 227 219 198 205 224 242 236 220 229 245 159
315 317 318 318 321 322 325 251 256 297 281 219 233 248 264 258 232 231 240 246 236 241 244 254 260 264 255 209 212 184 227 223 224 241 255 223 204 213 233 243 249 257 247 257
307 310 316 315 312 307 265 281 328 319 298 294 293 279 234 253 252 229 220 235 233 240 233 246 243 248 254 220 175 184 210 224 229 242 245 253 245 209 203 224 235 234 258 277
298 301 306 310 304 314 283 285 302 317 289 291 288 263 255 237 256 263 241 211 226 248 237 241 244 294 266 251 184 192 212 224 213 234 240 248 245 246 210 212 214 223 229 217
299 297 300 305 299 293 285 289 302 298 284 284 272 276 262 262 243 251 267 235 223 231 267 268 269 269 276 267 201 196 196 220 223 226 231 244 249 243 227 253 267 266 261 108
295 294 290 294 288 291 293 283 281 288 283 286 284 291 292 259 253 250 260 291 216 106 289 247 240 236 257 267 240 216 189 217 216 233 233 235 246 227 161 206 243 308 269 128
286 284 287 287 285 289 297 283 278 282 275 259 339 317 300 288 250 252 231 245 9 8 261 227 220 217 221 231 203 337 214 195 218 208 244 240 233 155 194 221 229 224 152 157
289 286 277 271 269 280 289 285 281 288 277 271 289 304 329 315 331 304 227 242 200 262 243 245 219 223 222 219 216 166 236 300 235 219 237 242 180 145 138 195 163 77 119 106
294 289 274 272 262 273 277 282 282 289 278 281 279 307 308 318 341 324 342 275 210 225 226 236 233 226 225 233 209 196 196 232 238 248 238 243 132 137 178 109 106 111 98 96
283 291 271 260 270 272 271 276 269 272 259 268 291 286 278 277 290 309 311 295 31 353 232 235 247 248 231 211 221 220 213 206 211 265 63 68 71 95 122 121 115 113 113 113
274 272 266 267 276 274 263 267 282 308 285 284 265 259 279 247 244 257 279 26 2 339 337 311 291 302 271 277 225 181 105 160 124 140 97 89 96 103 114 125 121 120 117 114
273 262 261 261 278 274 263 254 274 280 286 288 310 200 247 246 229 236 249 281 311 301 285 287 288 313 345 193 351 146 102 225 150 110 128 119 121 117 110 107 111 111 109 101
264 256 256 262 275 269 265 266 255 247 256 306 305 313 229 242 220 233 240 262 320 334 286 240 298 27 339 313 73 46 81 137 223 22 127 110 147 136 134 128 118 104 90 61
265 250 252 263 270 243 272 284 227 239 248 272 280 210 228 218 219 219 219 229 272 340 325 338 78 38 348 290 222 71 103 62 39 49 70 77 89 118 134 138 114 4 353 340
257 244 247 272 246 229 236 264 305 151 152 249 259 188 187 192 190 196 198 211 223 237 262 303 349 57 345 314 317 75 81 84 84 73 66 82 84 94 153 250 274 280 289 288
251 234 249 228 222 242 248 266 259 199 258 258 269 129 151 184 192 172 182 184 195 192 245 180 250 88 29 279 346 24 61 87 87 53 33 54 42 339 277 277 271 275 276 279
226 218 216 225 212 218 243 214 229 210 253 304 275 178 127 186 221 140 187 178 177 150 216 235 195 202 216 308 258 342 33 27 30 136 81 324 300 289 283 275 269 272 275 278
189 177 210 211 219 158 168 156 177 200 224 229 252 249 141 197 142 157 162 218 183 178 198 212 208 241 220 196 213 233 214 145 60 297 280 277 267 258 272 281 279 280 283 289
153 262 272 139 163 179 225 212 204 194 216 226 264 67 143 115 183 166 142 191 347 182 119 185 213 224 208 192 157 164 183 263 260 261 264 271 275 276 276 276 275 275 276 280
324 253 289 188 230 233 250 198 208 214 307 172 188 99 43 97 340 41 157 349 53 72 122 204 258 96 91 125 145 158 217 227 238 254 262 273 279 290 291 291 306 309 286 314
267 255 236 216 207 318 234 175 199 150 170 127 101 128 85 171 273 94 176 188 179 97 201 207 108 119 115 113 119 160 250 253 258 263 282 292 321 305 296 283 283 313 317 312
276 262 324 263 297 70 33 313 101 68 34 34 61 183 150 155 217 200 217 175 99 188 220 221 150 133 129 127 70 355 318 312 340 206 210 289 289 287 295 305 305 312 318 283
296 318 333 302 62 61 48 29 47 49 52 301 218 177 195 160 123 246 25 128 220 212 81 43 74 106 117 90 24 324 314 284 261 213 157 229 285 283 274 317 297 288 286 294
298 327 1 10 45 35 60 47 33 8 324 288 214 298 165 238 172 218 194 241 45 57 31 32 32 20 20 13 321 335 316 224 152 131 136 157 188 322 46 340 329 314 256 246
313 106 279 351 71 110 22 55 38 21 25 355 333 231 34 296 263 158 27 34 357 339 327 323 315 303 284 279 285 319 208 142 124 119 117 85 102 113 63 52 27 10 29 81
Wind_Speed_850mb
52 49 48 45 49 50 35 16 13 26 34 32 37 35 54 61 54 73 57 47 42 42 38 45 57 60 54 61 58 58 52 34 29 45 35 36 41 37 30 20 22 21 20 18
45 44 45 41 40 42 43 21 41 37 37 26 30 39 52 55 55 56 55 46 39 42 45 40 46 59 56 57 49 49 42 37 26 36 41 37 33 34 38 31 27 28 19 9
44 44 42 38 33 31 30 17 11 37 54 51 42 42 48 52 72 58 62 52 44 43 46 43 40 46 45 53 53 52 45 38 34 29 32 38 45 44 42 37 24 29 29 25
41 42 43 39 31 22 24 15 17 37 17 35 40 47 47 49 54 65 68 50 41 42 43 44 39 38 36 49 35 33 38 34 41 49 41 35 35 40 41 42 27 30 25 20
39 39 38 40 34 22 20 17 27 45 50 50 36 34 52 54 48 51 56 45 41 48 46 42 34 40 41 40 29 29 34 25 34 44 44 48 41 47 44 44 39 35 30 27
37 36 39 36 28 18 14 25 34 33 32 33 31 30 35 50 49 44 62 46 47 49 43 46 56 33 45 40 34 29 31 27 26 36 46 43 42 39 36 36 42 37 28 21
38 35 34 30 20 22 22 27 32 33 26 29 32 44 36 41 40 41 40 52 41 39 22 24 46 31 42 37 39 38 32 25 25 27 31 46 29 34 25 29 30 27 19 28
37 33 33 26 22 22 26 23 24 34 24 38 44 43 41 38 40 47 38 27 13 14 11 18 28 28 32 38 6 35 40 29 27 24 30 32 45 22 14 13 17 12 5 21
35 33 31 27 25 21 26 25 26 36 30 30 51 42 41 23 24 27 27 16 14 8 10 20 27 29 28 34 24 3 26 37 25 21 37 38 24 1 27 13 22 18 13 4
33 30 29 28 25 24 24 26 25 25 36 56 40 36 27 37 34 19 19 39 4 8 17 22 26 31 42 35 34 26 21 9 19 26 28 29 11 23 15 14 3 20 13 13
28 27 26 29 26 25 24 26 23 23 35 62 47 41 38 35 33 16 34 21 33 16 23 25 24 24 33 38 35 32 26 20 23 19 24 34 36 30 19 19 29 31 36 27
30 24 29 26 26 24 25 27 22 23 32 51 49 51 51 41 28 25 29 26 24 16 13 23 19 27 23 29 30 29 29 17 25 10 3 32 42 45 43 37 38 35 34 27
28 25 23 22 23 23 23 25 27 20 31 54 49 42 37 43 35 28 19 16 20 18 19 12 11 15 10 5 24 24 9 15 15 14 18 28 31 28 32 35 34 31 27 22
28 26 24 23 20 18 20 18 23 17 17 13 17 12 22 15 23 27 23 26 25 25 22 19 12 13 17 12 17 17 11 6 15 32 29 34 24 24 27 31 25 22 19 15
24 23 21 21 18 15 17 18 27 23 22 11 31 30 14 14 19 18 17 16 18 21 10 8 9 10 16 10 4 23 7 16 4 7 22 14 40 31 24 19 16 12 8 5
18 20 20 20 16 13 11 9 19 26 20 13 7 11 6 10 12 17 18 16 7 9 14 10 8 13 13 8 6 21 22 41 55 35 39 42 33 24 17 13 7 3 5 7
16 16 16 16 12 15 17 10 1 14 10 11 9 8 10 11 14 16 19 16 12 8 4 7 12 13 19 9 5 35 32 34 30 20 17 22 15 9 4 8 10 9 13 20
9 15 13 10 14 15 19 20 14 17 15 16 8 5 15 20 18 14 20 17 14 12 10 9 8 4 5 5 15 28 22 23 14 11 6 5 4 3 7 12 18 27 28 28
6 6 9 8 8 9 11 10 11 19 13 15 12 6 11 17 20 19 14 17 9 13 10 6 9 10 10 5 15 8 12 7 6 4 3 7 13 13 15 22 27 30 30 27
11 10 7 7 7 5 11 8 13 17 15 15 9 18 12 22 16 11 10 8 7 8 14 18 12 10 19 21 4 6 9 6 2 5 11 14 17 15 16 19 20 21 23 24
8 4 5 4 14 10 11 11 14 20 8 14 22 18 13 6 9 12 4 7 1 4 8 8 9 18 27 22 20 13 6 6 11 12 12 16 19 23 27 29 30 29 26 26
10 3 8 9 9 11 8 8 9 6 7 12 2 6 3 9 9 7 3 1 3 5 5 3 7 15 26 20 12 5 10 11 12 14 15 19 21 22 26 24 20 17 14 16
5 7 7 8 9 2 8 15 7 13 4 11 4 6 6 4 8 9 3 6 5 7 5 7 4 27 20 17 11 4 7 12 15 16 15 11 9 11 13 16 14 15 14 19
6 5 6 5 4 4 7 6 8 8 23 12 5 13 5 12 5 2 7 7 6 6 7 11 16 31 23 14 8 11 16 17 22 3 6 3 7 9 10 11 13 16 15 15
8 9 6 5 2 2 33 22 23 15 15 6 2 2 9 7 1 4 2 7 7 10 7 16 25 21 17 13 5 14 14 14 8 6 3 3 6 7 9 12 15 16 13 12
7 8 9 29 15 17 21 17 30 26 8 4 15 6 4 7 7 6 10 6 4 10 11 16 15 13 7 3 10 18 13 3 8 9 4 3 2 1 3 9 9 8 6 7
11 10 4 6 22 16 2 13 26 25 20 7 10 1 5 6 7 2 12 11 11 26 24 21 19 23 21 16 14 14 3 11 14 13 7 5 5 9 7 12 17 12 5 2
Wind_Direction_850mb
324 327 325 324 333 330 331 303 260 198 179 196 224 229 231 248 246 246 258 262 257 258 263 232 224 224 211 207 213 208 226 245 248 197 196 214 231 216 222 243 250 280 305 181
321 326 329 326 338 345 341 296 274 250 214 227 231 239 236 243 246 250 243 248 250 264 272 274 240 226 218 213 206 223 203 233 241 244 195 193 233 232 220 233 260 270 274 132
320 321 324 325 333 336 338 289 271 222 227 238 254 246 238 232 240 246 249 242 232 237 260 268 272 239 213 213 214 207 224 216 233 227 219 198 205 224 242 236 220 229 245 159
315 317 318 318 321 322 325 251 256 297 281 219 233 248 264 258 232 231 240 246 236 241 244 254 260 264 255 209 212 184 227 223 224 241 255 223 204 213 233 243 249 257 247 257
307 310 316 315 312 307 265 281 328 319 298 294 293 279 234 253 252 229 220 235 233 240 233 246 243 248 254 220 175 184 210 224 229 242 245 253 245 209 203 224 235 234 258 277
298 301 306 310 304 314 283 285 302 317 289 291 288 263 255 237 256 263 241 211 226 248 237 241 244 294 266 251 184 192 212 224 213 234 240 248 245 246 210 212 214 223 229 217
299 297 300 305 299 293 285 289 302 298 284 284 272 276 262 262 243 251 267 235 223 231 267 268 269 269 276 267 201 196 196 220 223 226 231 244 249 243 227 253 267 266 261 108
295 294 290 294 288 291 293 283 281 288 283 286 284 291 292 259 253 250 260 291 216 106 289 247 240 236 257 267 240 216 189 217 216 233 233 235 246 227 161 206 243 308 269 128
286 284 287 287 285 289 297 283 278 282 275 259 339 317 300 288 250 252 231 245 9 8 261 227 220 217 221 231 203 337 214 195 218 208 244 240 233 155 194 221 229 224 152 157
289 286 277 271 269 280 289 285 281 288 277 271 289 304 329 315 331 304 227 242 200 262 243 245 219 223 222 219 216 166 236 300 235 219 237 242 180 145 138 195 163 77 119 106
294 289 274 272 262 273 277 282 282 289 278 281 279 307 308 318 341 324 342 275 210 225 226 236 233 226 225 233 209 196 196 232 238 248 238 243 132 137 178 109 106 111 98 96
283 291 271 260 270 272 271 276 269 272 259 268 291 286 278 277 290 309 311 295 31 353 232 235 247 248 231 211 221 220 213 206 211 265 63 68 71 95 122 121 115 113 113 113
274 272 266 267 276 274 263 267 282 308 285 284 265 259 279 247 244 257 279 26 2 339 337 311 291 302 271 277 225 181 105 160 124 140 97 89 96 103 114 125 121 120 117 114
273 262 261 261 278 274 263 254 274 280 286 288 310 200 247 246 229 236 249 281 311 301 285 287 288 313 345 193 351 146 102 225 150 110 128 119 121 117 110 107 111 111 109 101
264 256 256 262 275 269 265 266 255 247 256 306 305 313 229 242 220 233 240 262 320 334 286 240 298 27 339 313 73 46 81 137 223 22 127 110 147 136 134 128 118 104 90 61
265 250 252 263 270 243 272 284 227 239 248 272 280 210 228 218 219 219 219 229 272 340 325 338 78 38 348 290 222 71 103 62 39 49 70 77 89 118 134 138 114 4 353 340
257 244 247 272 246 229 236 264 305 151 152 249 259 188 187 192 190 196 198 211 223 237 262 303 349 57 345 314 317 75 81 84 84 73 66 82 84 94 153 250 274 280 289 288
251 234 249 228 222 242 248 266 259 199 258 258 269 129 151 184 192 172 182 184 195 192 245 180 250 88 29 279 346 24 61 87 87 53 33 54 42 339 277 277 271 275 276 279
226 218 216 225 212 218 243 214 229 210 253 304 275 178 127 186 221 140 187 178 177 150 216 235 195 202 216 308 258 342 33 27 30 136 81 324 300 289 283 275 269 272 275 278
189 177 210 211 219 158 168 156 177 200 224 229 252 249 141 197 142 157 162 218 183 178 198 212 208 241 220 196 213 233 214 145 60 297 280 277 267 258 272 281 279 280 283 289
153 262 272 139 163 179 225 212 204 194 216 226 264 67 143 115 183 166 142 191 347 182 119 185 213 224 208 192 157 164 183 263 260 261 264 271 275 276 276 276 275 275 276 280
324 253 289 188 230 233 250 198 208 214 307 172 188 99 43 97 340 41 157 349 53 72 122 204 258 96 91 125 145 158 217 227 238 254 262 273 279 290 291 291 306 309 286 314
267 255 236 216 207 318 234 175 199 150 170 127 101 128 85 171 273 94 176 188 179 97 201 207 108 119 115 113 119 160 250 253 258 263 282 292 321 305 296 283 283 313 317 312
276 262 324 263 297 70 33 313 101 68 34 34 61 183 150 155 217 200 217 175 99 188 220 221 150 133 129 127 70 355 318 312 340 206 210 289 289 287 295 305 305 312 318 283
296 318 333 302 62 61 48 29 47 49 52 301 218 177 195 160 123 246 25 128 220 212 81 43 74 106 117 90 24 324 314 284 261 213 157 229 285 283 274 317 297 288 286 294
298 327 1 10 45 35 60 47 33 8 324 288 214 298 165 238 172 218 194 241 45 57 31 32 32 20 20 13 321 335 316 224 152 131 136 157 188 322 46 340 329 314 256 246
313 106 279 351 71 110 22 55 38 21 25 355 333 231 34 296 263 158 27 34 357 339 327 323 315 303 284 279 285 319 208 142 124 119 117 85 102 113 63 52 27 10 29 81